FW6216 Weather Reports


Display with metric or nautical units.
time (UTC)temp
F
wind
direction
speed
MPH
gust
MPH
rain 1hr
in
rain 24hr
in
rain mn
in
humidity
%
barometer
mb
20260505051543 64 122 0.0 5.0 0.00 0.00 0.00 52 1012.0
20260505041536 67 294 5.0 15.0 0.00 0.00 0.00 45 1011.4
20260505040050 67 268 8.0 17.0 0.00 0.00 0.00 45 1011.1
20260505033033 68 284 8.0 17.0 0.00 0.00 0.00 42 1010.6
20260505031530 69 275 7.0 14.0 0.00 0.00 0.00 41 1010.4
20260505030032 71 279 8.0 19.0 0.00 0.00 0.00 39 1010.2
20260505024534 72 285 9.0 19.0 0.00 0.00 0.00 38 1010.1
20260505023032 73 278 10.0 20.0 0.00 0.00 0.00 36 1010.1
20260505021531 74 274 9.0 20.0 0.00 0.00 0.00 34 1010.0
20260505020039 75 272 9.0 18.0 0.00 0.00 0.00 33 1009.9
20260505014535 76 285 9.0 20.0 0.00 0.00 0.00 32 1009.9
20260505011535 78 279 12.0 22.0 0.00 0.00 0.00 31 1009.8
20260505010141 79 288 11.0 22.0 0.00 0.00 0.00 31 1009.8
20260505004534 80 293 9.0 19.0 0.00 0.00 0.00 30 1010.0
20260505003036 81 287 8.0 17.0 0.00 0.00 0.00 29 1010.0
20260505001535 81 279 10.0 19.0 0.00 0.00 0.00 29 1010.0
20260505000037 82 272 9.0 18.0 0.00 0.00 0.00 29 1010.0
20260504234648 83 294 7.0 16.0 0.00 0.00 0.00 31 1010.0
20260504233033 82 343 8.0 19.0 0.00 0.00 0.00 34 1010.1
20260504231530 82 12 9.0 16.0 0.00 0.00 0.00 33 1010.2
20260504224531 83 349 6.0 13.0 0.00 0.00 0.00 33 1010.5
20260504223109 82 322 5.0 14.0 0.00 0.00 0.00 32 1010.7
20260504221530 82 349 5.0 16.0 0.00 0.00 0.00 31 1010.8
20260504220032 82 318 7.0 17.0 0.00 0.00 0.00 33 1011.0
20260504214532 81 354 7.0 14.0 0.00 0.00 0.00 33 1011.1
20260504213035 81 4 8.0 15.0 0.00 0.00 0.00 33 1011.2
20260504211608 81 358 7.0 14.0 0.00 0.00 0.00 33 1011.4
20260504210033 81 4 8.0 15.0 0.00 0.00 0.00 33 1011.5
20260504204530 82 7 7.0 15.0 0.00 0.00 0.00 32 1011.6
20260504203042 83 9 7.0 14.0 0.00 0.00 0.00 32 1011.8
20260504203032 83 13 7.0 15.0 0.00 0.00 0.00 32 1011.8
20260504200030 82 2 6.0 13.0 0.00 0.00 0.00 32 1011.9
20260504194532 82 10 9.0 17.0 0.00 0.00 0.00 33 1011.9
20260504193142 82 357 8.0 18.0 0.00 0.00 0.00 35 1012.0
20260504191611 82 358 8.0 14.0 0.00 0.00 0.00 37 1012.0
20260504190037 82 6 7.0 14.0 0.00 0.00 0.00 39 1012.2
20260504184648 81 18 6.0 12.0 0.00 0.00 0.00 40 1012.3
20260504183035 80 14 7.0 14.0 0.00 0.00 0.00 41 1012.2
20260504181530 78 24 7.0 12.0 0.00 0.00 0.00 42 1012.2
20260504180141 78 22 5.0 11.0 0.00 0.00 0.00 43 1012.2
20260504174530 77 23 4.0 9.0 0.00 0.00 0.00 42 1012.2
20260504173110 77 27 4.0 8.0 0.00 0.00 0.00 41 1012.2
20260504171529 78 360 2.0 8.0 0.00 0.00 0.00 41 1012.1
20260504170111 77 5 2.0 4.0 0.00 0.00 0.00 43 1012.1
20260504140111 58 186 0.0 2.0 0.00 0.00 0.00 64 1012.6
20260504081533 57 171 2.0 5.0 0.00 0.00 0.00 56 1012.7